Charter Quote
Worldwide +1-877-727-2538 Call
Select Language Lang
SAFETY RELIABILITY EXPERIENCE

Private Jet Charter Services - Payerne Airport (LSMP)

Paramount Business Jets offers private jet charter flights and luxury airliner charters to and from Payerne Airport.

AIRPORT INFORMATION
ICAOLSMP
LOCATIONPayerne, Switzerland
FACILITY TYPEAIRPORT
Runway Length (ft) Width (ft) Surface Type Elevation (ft)
23/05 9376 130 ASP 1459.04918

At Paramount Business Jets you can hire chartered private jets to and from Payerne Airport with as little as 4 hours of notice. All flights booked via Paramount Business Jets are operated by certified direct air carriers that meet and exceed the FAA part 135 and 121 protocol or a foreign equivalent safety authority. Furthermore, Paramount Business Jets subscribes to ARGUS for their third party safety checks of operators, aircraft, and crews prior each and every flight to and from Payerne Airport and worldwide.

  • Quote a trip using Payerne Airport or call us 24/7 - 365 days a year at +1-877-727-2538.
Questions? Call +1-877-727-2538

METAR Weather Data at Payerne Airport, LSMP

STATIONLSMP
OBSERVEDWed Sep 18, 20:50 UTC
NOWWed Sep 18, 21:49 UTC
AGE59 min ago
WINDENE at 6 mph
METARLSMP 182050Z AUTO 06005KT 020V080 9999NDV NCD 13/08 Q1022 RMK

Call us on +1-877-727-2538 (24 Hours) to Hire a Private Jet or Get a Quick Quote.

Find Airports Near any Location

Processing
...